{"data":{"norad_id":63035,"intl_designator":"2025-034G","name":"STARLINK-32801","alt_names":[],"object_type":"PAYLOAD","status":"ACTIVE","operator":null,"country":"US","launch_date":"2025-02-18","launch_site_code":"AFETR","launch_vehicle":null,"mission":null,"orbit_class":"UNKNOWN","rcs_meters":null,"size_class":null,"mass_kg":null,"dimensions":null,"purposes":["comms"],"wikipedia_slug":null,"has_3d_model":false,"image_url":null,"decayed_at":null,"tle_current":{"epoch":"2026-05-24T17:47:53.112480Z","epoch_age_seconds":90769,"freshness":"FRESH","line1":"1 63035U 25034G   26144.74158695  .00027789  00000+0  83162-3 0  9998","line2":"2 63035  53.1591 264.6654 0000936 112.9881 247.1220 15.34358983 70727","mean_motion":15.34358983,"eccentricity":9.36e-5,"inclination_deg":53.1591,"raan_deg":264.6654,"arg_perigee_deg":112.9881,"mean_anomaly_deg":247.122,"bstar":0.00083162,"rev_number":7072,"period_min":93.850266851144,"perigee_km":462.18484003322,"apogee_km":463.46546814847,"semimajor_km":6840.9621540908,"source":"CELESTRAK","updated_at":"2026-05-25T13:38:19.866380Z"}}}